Hourly Data Report for August 20, 2017

All times are specified in Local Standard Time (LST). Add 1 hour to adjust for Daylight Saving Time where and when it is observed.

ST. STEPHEN
NEW BRUNSWICK

45°12'36.600" N
67°15'10.300" W
26.10 m
8104935
71607
WSS

Download Data

Hourly Data (August 2017)
Hourly Data Report for August 20, 2017
Temp Definition
°C
Dew Point Temp Definition
°C
Rel Hum Definition
%
Wind Dir Definition
10's deg

Wind Spd Definition
km/h
Visibility Definition
km
Stn Press Definition
kPa
Hmdx Definition


Wind Chill Definition


Weather Definition


TIME
00:00 16.4 15.9 97 7 2   100.65     LegendNANA
01:00 16.3 15.8 97 0 1   100.65     LegendNANA
02:00 16.2 15.7 97 8 2   100.63     LegendNANA
03:00 16.2 15.8 97 9 3   100.60     LegendNANA
04:00 15.8 15.4 97 9 3   100.58     LegendNANA
05:00 15.8 15.3 97 10 2   100.62     LegendNANA
06:00 15.7 15.2 97 7 4   100.63     LegendNANA
07:00 16.2 15.8 97 10 5   100.65     LegendNANA
08:00 16.8 16.4 97 0 1   100.75     LegendNANA
09:00 17.7 17.2 97 10 3   100.74     LegendNANA
10:00 20.6 19.1 92 11 1   100.73 27   LegendNANA
11:00 23.4 18.2 73 25 10   100.71 30   LegendNANA
12:00 24.8 17.7 65 24 11   100.70 31   LegendNANA
13:00 26.4 16.7 55 24 16   100.70 31   LegendNANA
14:00 26.8 16.2 52 25 15   100.69 32   LegendNANA
15:00 25.7 16.1 55 27 14   100.71 30   LegendNANA
16:00 24.8 17.3 63 27 10   100.78 30   LegendNANA
17:00 25.9 16.4 56 27 12   100.79 31   LegendNANA
18:00 25.0 15.6 56 26 10   100.82 29   LegendNANA
19:00 23.7 13.1 51 27 8   100.90 27   LegendNANA
20:00 21.6 12.9 58 28 5   100.99     LegendNANA
21:00 16.9 13.5 80   0   101.06     LegendNANA
22:00 14.6 13.2 91   0   101.13     LegendNANA
23:00 14.0 12.9 93   0   101.17     LegendNANA

Notes on Data Quality.

Legend

  • E = Estimated
  • M = Missing
  • NA = Not Available
  • ‡ = Partner data that is not subject to review by the National Climate Archives
Date modified: